Miscellaneous Local Product
Issued by NWS Hastings, NE

Home | Current Version | Previous Version | Graphics & Text | Print | Product List | Glossary On
Versions: 1 2 3 4 5 6 7 8 9 10 11 12 13 14 15 16 17 18 19 20 21 22 23 24 25 26 27 28 29 30 31 32 33 34 35 36 37 38 39 40 41 42 43 44 45 46 47 48 49 50
000
AXUS43 KGID 171202
MISGRI

GID CWA HOURLY WEATHER ROUNDUP
NATIONAL WEATHER SERVICE HASTINGS NE
700 AM CDT FRI APR 17 2015

NOTE: "FAIR" INDICATES FEW OR NO CLOUDS BELOW 12,000 FEET WITH NO
SIGNIFICANT WEATHER AND/OR OBSTRUCTIONS TO VISIBILITY.

...SOUTH CENTRAL NEBRASKA...

CITY           SKY/WX    TMP DP  RH WIND       PRES   REMARKS
GRAND ISLAND   CLOUDY    54  52  93 NE8       30.09R FOG
HASTINGS       CLOUDY    55  54  96 NW3       30.09R FOG
KEARNEY        CLOUDY    54  52  94 NE9       30.09F
ORD            LGT RAIN  52  50  93 E5        30.11S FOG
YORK           CLOUDY    55  54  94 NE9       30.08S
AURORA         CLOUDY    54  54  99 N8        30.08S FOG
LEXINGTON      CLOUDY    54  53  95 E9        30.08R FOG
HOLDREGE       CLOUDY    53  51  95 NE7       30.06F FOG
HEBRON         CLOUDY    56  54  92 CALM      30.06R FOG

...NEBRASKA PANHANDLE...

CITY           SKY/WX    TMP DP  RH WIND       PRES   REMARKS
CHADRON        LGT RAIN  45  39  79 N5        30.17F
ALLIANCE       CLOUDY    45  41  86 NE16      30.10F
SCOTTSBLUFF    LGT RAIN  45  41  86 NE22      30.09F
SIDNEY         LGT RAIN  45  44  97 NE16      30.06S FOG

...WESTERN AND NORTH CENTRAL NEBRASKA...

CITY           SKY/WX    TMP DP  RH WIND       PRES   REMARKS
VALENTINE      CLOUDY    50  38  63 NE5       30.15F
AINSWORTH      CLOUDY    49  43  79 N6        30.13F
ONEILL         CLOUDY    51  49  92 N6        30.13S
BROKEN BOW     LGT RAIN  53  51  93 NE8       30.10S FOG
IMPERIAL       CLOUDY    52  49  89 E13       30.04S
NORTH PLATTE   LGT RAIN  51  50  96 NE10      30.08S
MCCOOK         CLOUDY    53  52  96 E12       30.04S FOG

...EASTERN NEBRASKA...

CITY           SKY/WX    TMP DP  RH WIND       PRES   REMARKS
NORFOLK        NOT AVBL
SO SIOUX CITY  MOCLDY    50  45  83 CALM      30.12S
TEKAMAH        CLOUDY    54  49  83 N10       30.10F
COLUMBUS       CLOUDY    55  48  76 NE9       30.12S
ALBION         LGT RAIN  54  50  87 NE3       30.12F
OMAHA EPPLEY   MOCLDY    55  51  86 N9        30.08F
OFFUTT AFB     MOCLDY    56  51  82 W3        30.08S
MILLARD        MOCLDY    58  51  79 CALM      30.08F
LINCOLN        CLOUDY    57  53  86 NW5       30.09R FOG
NEBRASKA CITY  MOCLDY    53  50  87 NE3       30.08S
BEATRICE       CLOUDY    59  55  87 E5        30.06S
FALLS CITY     CLOUDY    54  51  90 E3        30.06S

...NORTHERN KANSAS...

CITY           SKY/WX    TMP DP  RH WIND       PRES   REMARKS
GOODLAND       CLOUDY    50  50 100 SE13      30.01S
HILL CITY      CLOUDY    54  51  90 N9        30.00F
NORTON         SUNNY     54  50  87 NE12      30.01F FOG
PHILLIPSBURG   MOCLDY    55  55 100 N5        30.04S
SMITH CENTER   MOCLDY    54  52  94 E8        30.05S
BELOIT         MOCLDY    55  54  94 NE5       30.05S
HAYS           CLOUDY    55  46  71 E21G29    29.95F
RUSSELL        LGT RAIN  56  52  86 S14       29.98F
CONCORDIA      CLOUDY    56  54  93 CALM      30.06R
SALINA         CLOUDY    57  52  83 W5        30.05R
TOPEKA         FOG       52  51  97 N5        30.05S VSB 1/4



USA.gov is the U.S. government's official web portal to all federal, state and local government web resources and services.